Time,TemperatureF,DewpointF,PressureIn,WindDirection,WindDirectionDegrees,WindSpeedMPH,WindSpeedGustMPH,Humidity,HourlyPrecipIn,Conditions,Clouds,dailyrainin,SoftwareType,DateUTC
2013-07-20 00:02:00,77.0,69.0,29.85,NNE,19,1.0,30.0,76,0.00,,,0.00,,2013-07-20 05:02:00,
2013-07-20 00:12:00,77.0,69.0,29.85,NNW,335,3.0,30.0,76,0.00,,,0.00,,2013-07-20 05:12:00,
2013-07-20 00:22:00,78.0,71.0,29.85,NNW,328,2.0,6.0,79,0.00,,,0.00,,2013-07-20 05:22:00,
2013-07-20 00:32:00,78.0,71.0,29.85,NNW,330,2.0,7.0,79,0.00,,,0.00,,2013-07-20 05:32:00,
2013-07-20 00:52:00,77.0,70.0,29.85,NW,318,1.0,7.0,79,0.00,,,0.00,,2013-07-20 05:52:00,
2013-07-20 01:01:00,77.0,70.0,29.85,NNW,344,3.0,7.0,79,0.00,,,0.00,,2013-07-20 06:01:00,
2013-07-20 01:11:00,77.0,70.0,29.85,NNE,25,1.0,7.0,79,0.00,,,0.00,,2013-07-20 06:11:00,
2013-07-20 01:21:00,76.0,67.0,29.85,NNE,15,2.0,7.0,74,0.00,,,0.00,,2013-07-20 06:21:00,
2013-07-20 01:32:00,76.0,67.0,29.85,NNW,345,2.0,7.0,74,0.00,,,0.00,,2013-07-20 06:32:00,
2013-07-20 01:43:00,76.0,67.0,29.85,North,358,2.0,7.0,74,0.00,,,0.00,,2013-07-20 06:43:00,
2013-07-20 01:52:00,76.0,67.0,29.85,North,1,1.0,8.0,74,0.00,,,0.00,,2013-07-20 06:52:00,
2013-07-20 02:01:00,76.0,67.0,29.85,NNW,346,2.0,8.0,74,0.00,,,0.00,,2013-07-20 07:01:00,
2013-07-20 02:12:00,76.0,67.0,29.85,North,8,2.0,8.0,74,0.00,,,0.00,,2013-07-20 07:12:00,
2013-07-20 02:22:00,76.0,66.0,29.85,North,1,2.0,8.0,72,0.00,,,0.00,,2013-07-20 07:22:00,
2013-07-20 02:33:00,75.0,65.0,29.85,North,8,2.0,8.0,72,0.00,,,0.00,,2013-07-20 07:33:00,
2013-07-20 02:44:00,75.0,65.0,29.85,North,349,3.0,8.0,72,0.00,,,0.00,,2013-07-20 07:44:00,
2013-07-20 02:53:00,75.0,65.0,29.85,North,3,2.0,8.0,72,0.00,,,0.00,,2013-07-20 07:53:00,
2013-07-20 03:01:00,74.0,64.0,29.85,North,353,2.0,8.0,72,0.00,,,0.00,,2013-07-20 08:01:00,
2013-07-20 03:11:00,74.0,64.0,29.85,NW,315,0.0,8.0,72,0.00,,,0.00,,2013-07-20 08:11:00,
2013-07-20 03:22:00,74.0,65.0,29.85,NNW,339,1.0,8.0,73,0.00,,,0.00,,2013-07-20 08:22:00,
2013-07-20 03:32:00,73.0,64.0,29.85,North,6,0.0,8.0,73,0.00,,,0.00,,2013-07-20 08:32:00,
2013-07-20 03:44:00,72.0,63.0,29.85,NW,322,1.0,8.0,73,0.00,,,0.00,,2013-07-20 08:44:00,
2013-07-20 03:52:00,72.0,63.0,29.85,NW,310,0.0,8.0,73,0.00,,,0.00,,2013-07-20 08:52:00,
2013-07-20 04:02:00,71.0,62.0,29.85,North,4,0.0,8.0,73,0.00,,,0.00,,2013-07-20 09:02:00,
2013-07-20 04:11:00,71.0,62.0,29.85,North,354,0.0,8.0,73,0.00,,,0.00,,2013-07-20 09:11:00,
2013-07-20 04:22:00,71.0,63.0,29.85,West,278,0.0,8.0,77,0.00,,,0.00,,2013-07-20 09:22:00,
2013-07-20 04:33:00,71.0,63.0,29.85,West,278,0.0,8.0,77,0.00,,,0.00,,2013-07-20 09:33:00,
2013-07-20 04:43:00,70.0,62.0,29.85,West,278,0.0,8.0,77,0.00,,,0.00,,2013-07-20 09:43:00,
2013-07-20 04:53:00,70.0,62.0,29.85,West,278,0.0,8.0,77,0.00,,,0.00,,2013-07-20 09:53:00,
2013-07-20 05:01:00,69.0,61.0,29.85,West,278,0.0,8.0,77,0.00,,,0.00,,2013-07-20 10:01:00,
2013-07-20 05:11:00,69.0,61.0,29.85,West,278,0.0,8.0,77,0.00,,,0.00,,2013-07-20 10:11:00,
2013-07-20 05:22:00,68.0,62.0,29.86,North,350,0.0,8.0,80,0.00,,,0.00,,2013-07-20 10:22:00,
2013-07-20 05:32:00,68.0,62.0,29.86,NNW,333,0.0,8.0,80,0.00,,,0.00,,2013-07-20 10:32:00,
2013-07-20 05:42:00,68.0,62.0,29.86,NW,310,1.0,8.0,80,0.00,,,0.00,,2013-07-20 10:42:00,
2013-07-20 05:52:00,67.0,61.0,29.86,WNW,302,0.0,8.0,80,0.00,,,0.00,,2013-07-20 10:52:00,
2013-07-20 06:01:00,67.0,61.0,29.86,WNW,302,0.0,8.0,80,0.00,,,0.00,,2013-07-20 11:01:00,
2013-07-20 06:11:00,67.0,61.0,29.86,North,10,0.0,8.0,80,0.00,,,0.00,,2013-07-20 11:11:00,
2013-07-20 06:22:00,68.0,63.0,29.86,NNE,20,1.0,8.0,84,0.00,,,0.00,,2013-07-20 11:22:00,
2013-07-20 06:32:00,68.0,63.0,29.86,North,9,2.0,8.0,84,0.00,,,0.00,,2013-07-20 11:32:00,
2013-07-20 06:43:00,68.0,63.0,29.86,North,9,2.0,8.0,84,0.00,,,0.00,,2013-07-20 11:43:00,
2013-07-20 06:52:00,68.0,63.0,29.86,North,10,0.0,8.0,84,0.00,,,0.00,,2013-07-20 11:52:00,
2013-07-20 07:01:00,69.0,64.0,29.86,NNW,340,1.0,8.0,84,0.00,,,0.00,,2013-07-20 12:01:00,
2013-07-20 07:11:00,69.0,64.0,29.86,NNW,330,0.0,8.0,84,0.00,,,0.00,,2013-07-20 12:11:00,
2013-07-20 07:22:00,70.0,65.0,29.86,NNE,30,1.0,8.0,83,0.00,,,0.00,,2013-07-20 12:22:00,
2013-07-20 07:32:00,71.0,66.0,29.86,NNE,18,0.0,8.0,83,0.00,,,0.00,,2013-07-20 12:32:00,
2013-07-20 07:52:00,72.0,67.0,29.86,NNE,14,2.0,8.0,83,0.00,,,0.00,,2013-07-20 12:52:00,
2013-07-20 08:01:00,72.0,67.0,29.86,NNW,340,0.0,8.0,83,0.00,,,0.00,,2013-07-20 13:01:00,
2013-07-20 08:11:00,73.0,68.0,29.86,NNW,343,0.0,8.0,83,0.00,,,0.00,,2013-07-20 13:11:00,
2013-07-20 08:22:00,74.0,66.0,29.87,North,11,1.0,8.0,76,0.00,,,0.00,,2013-07-20 13:22:00,
2013-07-20 08:32:00,74.0,66.0,29.87,NNE,19,2.0,8.0,76,0.00,,,0.00,,2013-07-20 13:32:00,
2013-07-20 08:43:00,75.0,67.0,29.87,NW,311,1.0,8.0,76,0.00,,,0.00,,2013-07-20 13:43:00,
2013-07-20 08:53:00,75.0,67.0,29.87,NNE,12,0.0,8.0,76,0.00,,,0.00,,2013-07-20 13:53:00,
2013-07-20 09:02:00,76.0,68.0,29.87,North,1,2.0,8.0,76,0.00,,,0.00,,2013-07-20 14:02:00,
2013-07-20 09:11:00,76.0,68.0,29.87,NNE,21,1.0,8.0,76,0.00,,,0.00,,2013-07-20 14:11:00,
2013-07-20 09:22:00,77.0,66.0,29.87,North,11,1.0,8.0,69,0.00,,,0.00,,2013-07-20 14:22:00,
2013-07-20 09:32:00,77.0,66.0,29.87,NE,56,1.0,8.0,69,0.00,,,0.00,,2013-07-20 14:32:00,
2013-07-20 09:43:00,78.0,67.0,29.87,NE,56,2.0,8.0,69,0.00,,,0.00,,2013-07-20 14:43:00,
2013-07-20 09:53:00,78.0,67.0,29.88,North,10,1.0,8.0,69,0.00,,,0.00,,2013-07-20 14:53:00,
2013-07-20 10:01:00,78.0,67.0,29.88,North,355,2.0,8.0,69,0.00,,,0.00,,2013-07-20 15:01:00,
2013-07-20 10:11:00,79.0,68.0,29.88,NNE,13,3.0,8.0,69,0.00,,,0.00,,2013-07-20 15:11:00,
2013-07-20 10:22:00,80.0,65.0,29.88,NNE,24,2.0,8.0,60,0.00,,,0.00,,2013-07-20 15:22:00,
2013-07-20 10:33:00,80.0,65.0,29.88,NNE,17,2.0,8.0,60,0.00,,,0.00,,2013-07-20 15:33:00,
2013-07-20 10:44:00,80.0,65.0,29.88,North,354,1.0,9.0,60,0.00,,,0.00,,2013-07-20 15:44:00,
2013-07-20 10:53:00,81.0,66.0,29.88,NE,49,2.0,9.0,60,0.00,,,0.00,,2013-07-20 15:53:00,
2013-07-20 11:01:00,81.0,66.0,29.88,NNW,336,2.0,9.0,60,0.00,,,0.00,,2013-07-20 16:01:00,
2013-07-20 11:11:00,81.0,66.0,29.88,North,5,3.0,9.0,60,0.00,,,0.00,,2013-07-20 16:11:00,
2013-07-20 11:22:00,81.0,64.0,29.88,North,11,2.0,9.0,57,0.00,,,0.00,,2013-07-20 16:22:00,
2013-07-20 11:32:00,81.0,64.0,29.88,NNW,345,2.0,9.0,57,0.00,,,0.00,,2013-07-20 16:32:00,
2013-07-20 11:43:00,82.0,65.0,29.88,East,81,3.0,9.0,57,0.00,,,0.00,,2013-07-20 16:43:00,
2013-07-20 11:52:00,82.0,65.0,29.88,East,95,1.0,9.0,57,0.00,,,0.00,,2013-07-20 16:52:00,
2013-07-20 12:02:00,82.0,65.0,29.88,North,349,1.0,10.0,57,0.00,,,0.00,,2013-07-20 17:02:00,
2013-07-20 12:11:00,83.0,66.0,29.88,NNE,32,1.0,10.0,57,0.00,,,0.00,,2013-07-20 17:11:00,
2013-07-20 12:22:00,83.0,65.0,29.89,ENE,71,3.0,10.0,55,0.00,,,0.00,,2013-07-20 17:22:00,
2013-07-20 12:32:00,84.0,66.0,29.89,NE,56,3.0,10.0,55,0.00,,,0.00,,2013-07-20 17:32:00,
2013-07-20 12:43:00,84.0,66.0,29.89,ENE,68,1.0,10.0,55,0.00,,,0.00,,2013-07-20 17:43:00,
2013-07-20 12:53:00,84.0,66.0,29.89,NNE,28,1.0,10.0,55,0.00,,,0.00,,2013-07-20 17:53:00,
2013-07-20 13:01:00,84.0,66.0,29.89,NNE,20,1.0,10.0,55,0.00,,,0.00,,2013-07-20 18:01:00,
2013-07-20 13:11:00,84.0,66.0,29.89,North,350,2.0,10.0,55,0.00,,,0.00,,2013-07-20 18:11:00,
2013-07-20 13:24:00,84.0,65.0,29.89,NNE,27,1.0,10.0,53,0.00,,,0.00,,2013-07-20 18:24:00,
2013-07-20 13:35:00,84.0,65.0,29.90,NE,53,1.0,10.0,53,0.00,,,0.00,,2013-07-20 18:35:00,
2013-07-20 13:45:00,84.0,65.0,29.90,North,9,2.0,10.0,53,0.00,,,0.00,,2013-07-20 18:45:00,
2013-07-20 13:55:00,85.0,66.0,29.90,NNE,21,2.0,10.0,53,0.00,,,0.00,,2013-07-20 18:55:00,
2013-07-20 14:05:00,85.0,66.0,29.90,North,5,1.0,10.0,53,0.00,,,0.00,,2013-07-20 19:05:00,
2013-07-20 14:14:00,85.0,66.0,29.90,ENE,57,2.0,10.0,53,0.00,,,0.00,,2013-07-20 19:14:00,
2013-07-20 14:34:00,85.0,65.0,29.90,SE,134,0.0,10.0,52,0.00,,,0.00,,2013-07-20 19:34:00,
2013-07-20 14:43:00,86.0,66.0,29.90,North,6,0.0,10.0,52,0.00,,,0.00,,2013-07-20 19:43:00,
2013-07-20 14:53:00,85.0,65.0,29.90,NE,44,3.0,10.0,52,0.00,,,0.00,,2013-07-20 19:53:00,
2013-07-20 15:06:00,86.0,66.0,29.90,North,0,0.0,10.0,52,0.00,,,0.00,,2013-07-20 20:06:00,
2013-07-20 15:14:00,86.0,66.0,29.90,NE,43,2.0,10.0,52,0.00,,,0.00,,2013-07-20 20:14:00,
2013-07-20 15:23:00,86.0,67.0,29.90,ENE,73,2.0,10.0,53,0.00,,,0.00,,2013-07-20 20:23:00,
2013-07-20 15:33:00,86.0,67.0,29.90,WNW,294,1.0,10.0,53,0.00,,,0.00,,2013-07-20 20:33:00,
2013-07-20 15:45:00,86.0,67.0,29.90,North,5,0.0,10.0,53,0.00,,,0.00,,2013-07-20 20:45:00,
2013-07-20 15:56:00,87.0,68.0,29.90,SSE,150,2.0,10.0,53,0.00,,,0.00,,2013-07-20 20:56:00,
2013-07-20 16:04:00,87.0,68.0,29.90,NNW,338,2.0,10.0,53,0.00,,,0.00,,2013-07-20 21:04:00,
2013-07-20 16:14:00,87.0,68.0,29.90,NNW,338,0.0,10.0,53,0.00,,,0.00,,2013-07-20 21:14:00,
2013-07-20 16:26:00,87.0,68.0,29.90,WNW,285,2.0,10.0,54,0.00,,,0.00,,2013-07-20 21:26:00,
2013-07-20 16:33:00,87.0,68.0,29.90,North,0,2.0,10.0,54,0.00,,,0.00,,2013-07-20 21:33:00,
2013-07-20 16:44:00,87.0,68.0,29.90,WNW,290,1.0,10.0,54,0.00,,,0.00,,2013-07-20 21:44:00,
2013-07-20 16:55:00,87.0,68.0,29.90,WNW,301,0.0,10.0,54,0.00,,,0.00,,2013-07-20 21:55:00,
2013-07-20 17:05:00,89.0,70.0,29.90,WSW,254,2.0,10.0,54,0.00,,,0.00,,2013-07-20 22:05:00,
2013-07-20 17:15:00,88.0,69.0,29.90,WNW,291,1.0,10.0,54,0.00,,,0.00,,2013-07-20 22:15:00,
2013-07-20 17:25:00,87.0,67.0,29.90,North,1,1.0,10.0,52,0.00,,,0.00,,2013-07-20 22:25:00,
2013-07-20 17:34:00,87.0,67.0,29.90,West,260,0.0,10.0,52,0.00,,,0.00,,2013-07-20 22:34:00,
2013-07-20 17:47:00,87.0,67.0,29.90,WNW,298,1.0,10.0,52,0.00,,,0.00,,2013-07-20 22:47:00,
2013-07-20 17:54:00,87.0,67.0,29.90,North,0,0.0,10.0,52,0.00,,,0.00,,2013-07-20 22:54:00,
2013-07-20 18:04:00,87.0,67.0,29.90,NW,317,1.0,10.0,52,0.00,,,0.00,,2013-07-20 23:04:00,
2013-07-20 18:16:00,87.0,67.0,29.90,NW,325,2.0,10.0,52,0.00,,,0.00,,2013-07-20 23:16:00,
2013-07-20 18:36:00,87.0,69.0,29.90,West,277,0.0,10.0,55,0.00,,,0.00,,2013-07-20 23:36:00,
2013-07-20 18:44:00,86.0,68.0,29.90,West,277,0.0,10.0,55,0.00,,,0.00,,2013-07-20 23:44:00,
2013-07-20 18:54:00,84.0,66.0,29.90,West,277,0.0,10.0,55,0.00,,,0.00,,2013-07-20 23:54:00,
2013-07-20 19:06:00,82.0,64.0,29.89,West,277,0.0,10.0,55,0.00,,,0.00,,2013-07-21 00:06:00,
2013-07-20 19:16:00,81.0,63.0,29.89,West,277,0.0,10.0,55,0.00,,,0.00,,2013-07-21 00:16:00,
2013-07-20 19:23:00,80.0,64.0,29.89,West,277,0.0,10.0,58,0.00,,,0.00,,2013-07-21 00:23:00,
2013-07-20 19:43:00,80.0,64.0,29.89,West,277,0.0,10.0,58,0.00,,,0.00,,2013-07-21 00:43:00,
2013-07-20 19:55:00,80.0,64.0,29.89,West,277,0.0,10.0,58,0.00,,,0.00,,2013-07-21 00:55:00,
2013-07-20 20:06:00,79.0,63.0,29.89,West,277,0.0,10.0,58,0.00,,,0.00,,2013-07-21 01:06:00,
2013-07-20 20:12:00,78.0,62.0,29.89,West,277,0.0,10.0,58,0.00,,,0.00,,2013-07-21 01:12:00,
2013-07-20 20:26:00,77.0,68.0,29.89,West,277,0.0,10.0,74,0.00,,,0.00,,2013-07-21 01:26:00,
2013-07-20 20:36:00,76.0,67.0,29.89,West,277,0.0,10.0,74,0.00,,,0.00,,2013-07-21 01:36:00,
2013-07-20 21:05:00,74.0,65.0,29.89,West,277,0.0,10.0,74,0.00,,,0.00,,2013-07-21 02:05:00,
2013-07-20 21:16:00,74.0,65.0,29.89,North,356,2.0,10.0,74,0.00,,,0.00,,2013-07-21 02:16:00,
2013-07-20 21:26:00,74.0,60.0,29.89,NNE,24,1.0,10.0,62,0.00,,,0.00,,2013-07-21 02:26:00,
2013-07-20 21:36:00,75.0,61.0,29.89,North,6,0.0,10.0,62,0.00,,,0.00,,2013-07-21 02:36:00,
2013-07-20 21:44:00,74.0,60.0,29.89,North,6,0.0,10.0,62,0.00,,,0.00,,2013-07-21 02:44:00,
2013-07-20 21:54:00,73.0,59.0,29.89,North,6,0.0,10.0,62,0.00,,,0.00,,2013-07-21 02:54:00,
2013-07-20 22:04:00,73.0,59.0,29.90,North,6,0.0,10.0,62,0.00,,,0.00,,2013-07-21 03:04:00,
2013-07-20 22:25:00,71.0,60.0,29.90,North,6,0.0,10.0,69,0.00,,,0.00,,2013-07-21 03:25:00,
2013-07-20 22:35:00,71.0,60.0,29.90,North,6,0.0,10.0,69,0.00,,,0.00,,2013-07-21 03:35:00,
2013-07-20 22:44:00,71.0,60.0,29.90,North,6,0.0,10.0,69,0.00,,,0.00,,2013-07-21 03:44:00,
2013-07-20 22:55:00,71.0,60.0,29.90,North,6,0.0,10.0,69,0.00,,,0.00,,2013-07-21 03:55:00,
2013-07-20 23:01:00,71.0,60.0,29.90,North,6,0.0,10.0,69,0.00,,,0.00,,2013-07-21 04:01:00,
2013-07-20 23:11:00,71.0,60.0,29.90,North,6,0.0,10.0,69,0.00,,,0.00,,2013-07-21 04:11:00,
2013-07-20 23:22:00,71.0,66.0,29.90,North,6,0.0,10.0,83,0.00,,,0.00,,2013-07-21 04:22:00,
2013-07-20 23:32:00,70.0,65.0,29.90,North,6,0.0,10.0,83,0.00,,,0.00,,2013-07-21 04:32:00,
2013-07-20 23:43:00,70.0,65.0,29.90,North,6,0.0,10.0,83,0.00,,,0.00,,2013-07-21 04:43:00,
2013-07-20 23:53:00,70.0,65.0,29.90,North,6,0.0,10.0,83,0.00,,,0.00,,2013-07-21 04:53:00,